Torna al catalogo

FENGYUN 1C DEB

AttivoPO
NORAD 32430·DEBRIS·🇨🇳 China

Lanciato May 10, 1999 da Taiyuan Satellite Launch Center

Loading…

Prossimi Passaggi (prossime 24 ore)

TLE

In scadenzaSource: Space-Track

Epoca: Sep 9, 2026, 18:24 UTC

1 32430U 99025DAS 26252.76728550  .00002081  00000-0  14624-2 0  9994
2 32430  98.6842 257.3021 0364847 269.0390  86.8949 13.71657082949176

Traccia FENGYUN 1C DEB in tempo reale con AllMySat

Download on the App Store